Location: Newark
(43.0275°N, 0.5708°E)
Time: 19:19:13
(UTC+00:00)

OTV 5 (USA 277) - Pass Details

Date: 30 October 2019
Orbit: 310 x 324 km, 54.5° (Epoch: 17 October)

Event Time Altitude Azimuth Distance (km) Brightness Sun altitude
Rises 19:04:24 0° 262° (W) 2,058 ? -24.5°
Reaches altitude 10° 19:06:38 10° 279° (W) 1,232 ? -24.9°
Enters shadow 19:07:33 16° 295° (WNW) 959 ? -25.1°
